Orbital Elements at Epoch 2459000.5 (2020-May-31.0) TDB
Reference: JPL 27 (heliocentric ecliptic J2000)
Element | Value | Uncertainty (1-sigma) | Units |
e | .06670520493679169 | 5.6997e-08 | |
a | 2.469354341623438 | 1.134e-08 | au |
q | 2.304635554203891 | 1.4208e-07 | au |
i | 6.788158364697575 | 5.5132e-06 | deg |
node | 324.7669730907521 | 2.3778e-05 | deg |
peri | 144.1891979224268 | 5.9402e-05 | deg |
M | 60.32612426560848 | 4.9676e-05 | deg |
tp | 2458762.992968770494 (2019-Oct-06.49296877) | 0.00019594 | TDB |
period | 1417.338380071709 3.88 | 9.7635e-06 2.673e-08 | d yr |
n | .2539972141174828 | 1.7497e-09 | deg/d |
Q | 2.634073129042986 | 1.2097e-08 | au |
|
| | Orbit Determination Parameters
Additional Information
|